Dewpoint
29 30 30 28 28 31 31 28 25 20 26 26 28 27 27 27 25 24 25 24 24 24 26 26 28 28 28 27 27 28 29 31 32 32 33 33 32 31 31 30 31 31 31 31
23 28 29 27 27 29 31 29 27 27 26 28 29 28 26 25 23 22 23 23 24 26 25 25 26 27 27 27 27 27 26 27 28 29 30 31 32 29 29 29 28 29 30 30
21 24 27 25 27 30 29 29 27 25 27 28 27 25 25 24 23 22 23 24 24 25 27 26 25 26 27 28 26 27 26 24 23 26 27 28 28 29 27 27 27 26 27 28
24 25 15 22 32 32 29 29 28 27 27 27 26 26 26 25 23 23 23 23 23 23 23 26 24 24 26 25 26 25 26 24 22 20 22 24 25 26 28 27 24 24 24 25
24 22 23 27 28 29 29 27 28 27 26 25 25 25 25 25 26 26 23 22 20 20 22 22 22 22 22 25 24 24 25 25 24 22 20 20 21 22 23 23 23 21 21 22
26 21 16 26 30 31 31 25 28 27 26 25 25 23 24 26 26 26 22 19 16 16 15 16 18 20 20 21 23 23 24 25 25 23 22 21 21 20 20 21 21 20 19 19
24 22 24 29 31 32 25 23 29 27 26 25 25 26 27 26 26 27 18 16 16 14 13 13 14 16 17 18 20 23 23 23 24 24 22 21 21 21 19 18 18 17 17 18
24 23 18 32 29 26 28 29 28 27 27 27 26 27 26 26 26 19 16 14 12 12 11 11 11 13 14 15 18 20 21 22 21 22 24 22 21 20 19 18 16 16 16 17
27 24 31 35 33 32 30 28 29 27 26 27 27 27 26 26 23 16 10 10 10 10 10 10 10 11 13 15 18 19 19 20 21 20 21 22 21 20 18 17 16 15 15 15
27 28 31 34 35 34 32 31 29 29 28 29 27 27 25 23 16 12 8 9 10 9 8 6 9 10 13 16 19 19 17 19 20 19 19 20 21 20 19 17 16 15 14 13
28 30 31 32 35 34 32 31 30 29 28 27 26 23 23 14 11 10 11 12 11 10 7 7 8 10 13 15 17 18 15 17 19 20 20 19 20 20 20 20 20 16 10 9
24 29 27 31 33 35 33 31 30 29 28 27 26 26 15 13 12 12 13 12 11 10 8 8 8 10 13 15 16 18 14 16 18 18 19 19 18 17 20 21 25 22 20 17
29 30 28 33 32 31 30 30 31 31 30 26 21 17 14 13 14 15 13 11 10 10 10 9 9 11 13 14 15 17 18 15 16 17 18 17 16 15 12 15 19 23 20 18
32 31 30 31 30 31 30 30 30 27 24 25 20 17 17 16 15 15 14 13 11 11 11 10 10 11 12 13 13 11 12 13 11 11 8 7 3 4 2 2 2 6 16 18
30 29 30 29 30 31 30 29 20 18 18 18 18 17 16 16 16 16 15 14 13 15 15 13 11 10 13 14 12 11 14 11 4 6 4 3 4 4 2 3 3 2 4 10
29 29 29 28 28 29 22 20 19 19 19 19 18 18 17 17 15 16 15 14 11 13 14 9 13 10 12 11 9 9 8 9 6 5 4 4 3 4 6 4 5 3 4 2
28 28 27 27 28 21 20 20 20 20 20 19 19 19 17 15 14 13 12 12 11 9 9 8 8 3 6 2 2 4 4 9 9 11 8 7 5 5 5 2 0 1 -0 -3
30 29 29 28 22 21 21 21 21 20 18 18 17 15 14 13 13 11 9 7 7 8 6 8 8 7 4 5 6 11 11 12 14 12 13 9 8 10 6 5 6 5 4 6
29 27 25 24 24 22 22 21 20 19 17 15 14 12 11 10 10 7 2 5 5 8 8 6 15 16 15 13 11 12 12 10 11 13 11 9 6 8 8 5 5 6 7 7
27 26 25 24 23 22 18 16 16 14 12 12 10 8 6 1 0 1 2 6 8 12 11 14 17 16 16 14 11 13 11 8 11 10 10 10 9 4 3 3 4 2 -1 0
27 26 23 19 15 15 17 15 13 11 9 10 10 7 6 4 2 3 8 13 11 9 14 14 14 14 13 10 12 8 5 3 4 8 6 4 2 3 5 5 5 6 6 4
19 17 15 16 16 12 11 13 13 11 9 6 1 3 3 6 4 6 8 14 15 10 15 14 12 2 6 7 7 2 5 3 4 2 1 4 3 1 1 2 3 3 0 1
17 16 16 15 16 14 14 13 12 11 9 6 5 5 10 15 16 13 14 16 15 10 13 8 2 0 -1 -1 -3 -7 -8 -8 -5 -4 -5 -10 -12 -12 -6 -2 -2 -5 -5 -3
16 16 14 17 16 14 13 11 12 12 8 10 9 10 17 15 13 17 15 7 6 6 3 0 -0 -2 -6 -8 -11 -11 -11 -12 -14 -16 -13 -14 -20 -14 -9 -12 -12 -12 -10 -8
16 17 17 17 16 15 14 13 13 12 13 13 16 16 17 16 10 9 9 7 9 4 -1 -5 -5 -8 -10 -15 -14 -17 -19 -18 -19 -20 -22 -21 -17 -17 -19 -20 -16 -15 -12 -5
20 19 18 19 18 17 15 16 15 17 17 14 16 15 11 13 12 11 7 4 3 -1 -4 -12 -12 -13 -16 -17 -19 -20 -18 -14 -20 -21 -23 -18 -20 -17 -20 -16 -18 -10 -8 -12
21 19 19 20 19 18 16 17 18 17 17 17 17 15 12 10 7 5 -3 -5 -8 -9 -11 -15 -17 -14 -16 -19 -19 -18 -17 -19 -21 -22 -25 -25 -26 -28 -23 -14 -15 -18 -21 -18
Lifted_Index
3 3 3 3 2 2 2 2 2 3 3 3 4 5 5 7 7 8 8 9 9 10 10 10 11 12 13 14 15 15 15 14 14 14 14 14 12 10 8 6 5 5 5 6
3 3 3 3 3 2 2 3 3 3 3 4 4 5 5 6 7 8 8 9 10 10 10 11 11 12 13 15 15 16 15 15 15 15 14 14 13 11 9 8 7 6 7 8
3 3 3 3 3 2 2 3 3 3 3 4 4 5 6 6 7 8 8 9 10 11 11 12 12 13 14 15 16 16 15 15 15 15 14 14 14 13 12 11 10 9 10 10
3 3 3 3 3 3 3 3 3 3 3 4 5 5 6 7 7 8 9 10 11 12 13 14 14 15 15 16 16 16 16 15 16 16 15 15 15 15 15 15 14 13 13 14
2 2 2 3 3 3 3 3 3 3 4 4 5 5 6 7 8 9 10 11 12 13 14 15 16 16 16 16 16 16 16 17 17 18 17 17 17 18 18 17 17 16 16 16
2 2 2 3 3 3 3 4 4 4 4 4 4 4 5 7 8 10 11 12 13 14 15 16 17 17 16 16 16 17 17 18 19 19 19 19 19 19 19 18 17 17 17 17
2 2 3 3 4 4 4 4 4 4 4 4 4 5 5 7 8 10 11 13 14 14 15 17 17 17 17 16 17 18 19 19 19 19 20 20 20 20 19 19 18 17 17 18
2 2 3 4 4 4 4 5 5 5 5 5 5 5 5 6 8 10 11 12 14 15 16 17 18 18 17 17 18 19 19 19 19 20 20 20 20 19 19 18 18 17 18 18
2 2 3 3 4 5 5 6 6 6 6 5 5 4 5 6 8 10 11 12 14 15 15 16 18 18 18 18 19 19 19 19 20 20 20 20 19 19 18 18 18 18 18 18
1 2 2 3 4 5 6 6 7 6 6 5 5 5 5 6 8 9 11 13 14 15 15 16 17 18 19 19 20 20 20 19 20 20 20 20 20 20 19 19 19 19 19 19
1 2 3 4 5 6 6 7 7 7 6 6 5 5 6 7 8 10 12 13 15 15 15 16 17 18 19 20 20 20 20 20 20 20 20 21 21 21 21 22 21 21 21 21
2 3 4 5 5 6 6 6 7 6 6 6 6 6 7 8 9 11 12 14 15 15 15 16 17 19 20 21 21 21 20 20 21 21 21 21 22 22 23 23 23 23 23 23
3 4 4 4 5 6 6 7 7 7 7 7 7 7 8 9 10 12 13 14 15 15 15 16 17 18 20 21 21 21 21 21 21 22 22 22 23 23 23 23 24 24 24 24
4 4 4 4 5 6 6 7 7 7 7 7 8 8 9 10 11 13 14 15 15 15 15 16 17 18 20 21 21 21 21 21 22 22 22 23 23 23 23 23 23 24 25 25
4 4 4 4 5 5 6 6 6 6 6 7 8 9 10 11 12 13 14 15 15 15 15 16 17 18 20 20 21 21 21 21 22 22 22 23 23 23 24 23 24 24 25 25
4 4 4 4 4 5 5 5 5 6 7 8 9 10 11 12 13 13 14 14 14 14 15 16 17 18 20 21 21 21 22 22 22 23 23 23 23 23 24 24 24 24 25 25
5 4 4 4 4 4 5 6 6 6 7 8 9 11 12 12 13 13 13 14 14 14 15 16 18 19 20 21 21 22 22 22 22 23 23 23 23 23 24 24 24 24 25 25
5 5 4 4 4 5 5 6 7 8 8 9 10 11 12 12 12 12 13 14 14 15 16 18 19 20 21 21 21 22 22 22 22 22 23 23 23 23 24 24 24 24 24 24
6 5 5 5 5 5 6 6 7 8 9 10 11 11 12 12 12 13 13 14 14 15 17 18 20 20 21 21 22 22 22 22 22 22 23 23 23 23 24 24 24 23 23 23
6 6 6 6 6 6 6 7 7 8 10 11 11 11 12 12 13 13 13 14 15 16 18 19 20 21 21 22 22 22 22 22 22 23 23 23 23 23 23 23 23 23 22 21
6 6 5 5 5 6 6 7 8 9 10 11 11 12 12 13 13 14 14 14 16 17 18 19 20 21 22 22 23 23 23 23 23 23 23 23 23 23 23 23 22 21 21 20
5 5 5 5 5 6 6 7 9 10 10 11 12 12 13 13 14 14 14 15 17 18 19 20 21 22 22 23 23 23 23 23 23 23 23 23 23 23 22 22 21 21 20 20
4 4 5 5 5 6 7 8 9 11 11 12 13 13 13 14 14 15 16 17 18 19 20 21 21 22 23 23 23 23 23 23 23 23 23 23 23 22 21 21 20 20 20 20
4 4 5 5 6 6 7 9 10 11 12 13 14 14 14 15 15 16 17 18 19 20 21 21 22 23 23 23 23 23 23 23 23 23 23 23 22 21 21 20 20 20 20 20
4 5 5 6 7 7 8 10 11 12 13 13 14 15 15 16 16 17 18 19 20 21 21 22 22 23 23 23 23 23 23 23 23 23 22 22 21 21 21 21 20 21 21 21
5 5 6 7 8 9 10 11 12 12 13 13 14 15 16 16 17 18 19 20 20 21 22 22 22 23 23 23 23 23 23 23 23 22 22 21 21 21 21 21 21 21 21 21
6 6 7 8 9 10 11 12 12 12 13 13 14 15 16 16 17 18 19 20 20 21 21 22 23 23 23 23 23 23 23 23 22 22 21 21 21 21 21 21 21 21 21 21